Stuttgart Echterdingen, Germany

4:38 AM CEST on October 17, 2017 (GMT +0200)
Stuttgart

Weather History for EDDS - May, 2013

Change the Weather History Date:

Monday, May 20, 2013

  Actual Average Record
Temperature  
Mean Temperature 52 °F -  
Max Temperature 61 °F 65 °F 79 °F (2014)
Min Temperature 44 °F 47 °F 41 °F (1999)
Degree Days  
Heating Degree Days 12    
Growing Degree Days 2 (Base 50)    
Moisture  
Dew Point 41 °F    
Average Humidity 65    
Maximum Humidity 87    
Minimum Humidity 41    
Precipitation  
Precipitation 0.00 in - - ()
Sea Level Pressure  
Sea Level Pressure 29.88 in    
Wind  
Wind Speed 8 mph ()    
Max Wind Speed 18 mph    
Max Gust Speed 37 mph    
Visibility 6.2 miles    
Events Rain    
Averages and records for this station are not official NWS values.
T = Trace of Precipitation, MM = Missing Value Source: Averaged Metar Reports

Daily Weather History Graph

Daily Weather History Graph

Search for Another Location

Airport or City:

Trip Planner

Search our weather history database for the weather conditions in past years. The results will help you decide how hot, cold, wet, or windy it might be!

Date:

Astronomy

May. 20, 2013 Rise Set
Actual Time 5:35 AM CEST 9:04 PM CEST
Civil Twilight 4:57 AM CEST 9:43 PM CEST
Nautical Twilight 4:05 AM CEST 10:34 PM CEST
Astronomical Twilight 2:56 AM CEST 11:45 PM CEST
Moon 3:29 PM CEST (5/20) 2:49 AM CEST (5/20)
Length of Visible Light 16h 45m
Length of Day
15h 28m
Waxing Gibbous, 72% of the Moon is Illuminated
May 20
Waxing Gibbous
May 25
Full
May 31
Last Quarter
Jun 8
New
Jun 16
First Quarter

Hourly Weather History & Observations

Time (CEST) Temp. Windchill Dew Point Humidity Pressure Visibility Wind Dir Wind Speed Gust Speed Precip Events Conditions
12:00 AM 48 °F - 45 °F 84% 29.87 in 37 mi SW 4.5 mph - -   Mostly Cloudy
12:20 AM 48.2 °F - 42.8 °F 82% 29.83 in - SW 5.8 mph - N/A   Clear
12:50 AM 48.2 °F - 42.8 °F 82% 29.86 in - SW 6.9 mph - N/A   Clear
1:00 AM 48 °F - 44 °F 80% 29.88 in 37 mi SW 6.7 mph - -   Scattered Clouds
1:20 AM 48.2 °F - 42.8 °F 82% 29.86 in - SSW 6.9 mph - N/A   Clear
1:50 AM 46.4 °F 42.9 °F 41.0 °F 81% 29.86 in - SSW 6.9 mph - N/A   Clear
2:00 AM 47 °F - 43 °F 79% 29.88 in 44 mi SSW 6.7 mph - -   Partly Cloudy
2:20 AM 46.4 °F 44.3 °F 41.0 °F 81% 29.86 in 6.2 mi SSW 4.6 mph - N/A   Partly Cloudy
2:50 AM 46.4 °F 45.2 °F 41.0 °F 81% 29.86 in - SSW 3.5 mph - N/A   Clear
3:00 AM 46 °F - 42 °F 80% 29.89 in 44 mi South 2.2 mph - -   Scattered Clouds
3:20 AM 44.6 °F - 41.0 °F 87% 29.86 in - South 2.3 mph - N/A   Clear
3:50 AM 44.6 °F - 41.0 °F 87% 29.86 in - Variable 1.2 mph - N/A   Clear
4:00 AM 45 °F - 42 °F 83% 29.89 in 44 mi SSE 2.2 mph - -   Scattered Clouds
4:20 AM 46.4 °F 45.2 °F 41.0 °F 81% 29.86 in - SSW 3.5 mph - N/A   Clear
4:50 AM 46.4 °F 43.5 °F 41.0 °F 81% 29.83 in - SSW 5.8 mph - N/A   Clear
5:20 AM 46.4 °F 43.5 °F 41.0 °F 81% 29.86 in - SSW 5.8 mph - N/A   Clear
5:50 AM 46.4 °F 42.9 °F 41.0 °F 81% 29.86 in - South 6.9 mph - N/A   Clear
6:00 AM 46 °F - 42 °F 81% 29.89 in 47 mi South 6.7 mph - -   Scattered Clouds
6:20 AM 46.4 °F 42.9 °F 41.0 °F 81% 29.86 in - South 6.9 mph - N/A   Clear
6:50 AM 48.2 °F - 41.0 °F 76% 29.86 in - SSW 6.9 mph - N/A   Clear
7:00 AM 48 °F - 42 °F 75% 29.89 in 47 mi SSW 6.7 mph - -   Scattered Clouds
7:20 AM 48.2 °F - 41.0 °F 76% 29.86 in 6.2 mi South 5.8 mph - N/A   Scattered Clouds
7:50 AM 50.0 °F - 41.0 °F 71% 29.86 in 6.2 mi SSW 11.5 mph - N/A   Scattered Clouds
8:00 AM 50 °F - 42 °F 65% 29.88 in 47 mi SSW 11.2 mph - -   Partly Cloudy
8:20 AM 51.8 °F - 42.8 °F 71% 29.86 in 6.2 mi SSW 8.1 mph - N/A   Scattered Clouds
8:50 AM 51.8 °F - 42.8 °F 71% 29.86 in 6.2 mi SW 12.7 mph - N/A   Scattered Clouds
9:00 AM 52 °F - 43 °F 62% 29.89 in 47 mi SW 13.4 mph - -   Partly Cloudy
9:20 AM 53.6 °F - 41.0 °F 62% 29.86 in 6.2 mi SSW 13.8 mph - N/A   Scattered Clouds
9:50 AM 55.4 °F - 41.0 °F 58% 29.86 in 6.2 mi SSW 15.0 mph 27.6 mph N/A   Scattered Clouds
10:00 AM 54 °F - 42 °F 55% 29.88 in 47 mi SSW 15.7 mph - -   Partly Cloudy
10:20 AM 55.4 °F - 42.8 °F 63% 29.89 in 6.2 mi SW 13.8 mph 26.5 mph N/A   Scattered Clouds
10:50 AM 57.2 °F - 37.4 °F 48% 29.89 in 6.2 mi SSW 11.5 mph - N/A   Scattered Clouds
11:20 AM 59.0 °F - 41.0 °F 51% 29.86 in 6.2 mi SSW 13.8 mph 28.8 mph N/A   Scattered Clouds
11:50 AM 59.0 °F - 42.8 °F 55% 29.86 in 6.2 mi SW 12.7 mph - N/A   Scattered Clouds
12:00 PM 59 °F - 43 °F 43% 29.87 in 47 mi SW 11.2 mph - -   Partly Cloudy
12:20 PM 59.0 °F - 41.0 °F 51% 29.86 in 6.2 mi WSW 17.3 mph 36.8 mph N/A   Scattered Clouds
12:50 PM 59.0 °F - 42.8 °F 55% 29.86 in - WSW 17.3 mph - N/A   Clear
1:00 PM 59 °F - 43 °F 45% 29.86 in 47 mi WSW 17.9 mph - -   Partly Cloudy
1:20 PM 59.0 °F - 42.8 °F 55% 29.86 in - WSW 15.0 mph - N/A   Clear
1:50 PM 60.8 °F - 41.0 °F 48% 29.86 in 6.2 mi SSW 12.7 mph - N/A   Scattered Clouds
2:00 PM 60 °F - 43 °F 42% 29.86 in 47 mi SSW 13.4 mph - -   Partly Cloudy
2:20 PM 60.8 °F - 41.0 °F 48% 29.86 in 6.2 mi SW 13.8 mph 25.3 mph N/A   Mostly Cloudy
2:50 PM 59.0 °F - 41.0 °F 51% 29.89 in 6.2 mi WSW 17.3 mph - N/A   Mostly Cloudy
3:00 PM 59 °F - 42 °F 41% 29.88 in 44 mi WSW 17.9 mph - -   Partly Cloudy
3:20 PM 59.0 °F - 42.8 °F 55% 29.89 in - WSW 18.4 mph - N/A   Clear
3:50 PM 57.2 °F - 41.0 °F 55% 29.89 in 6.2 mi SW 11.5 mph 23.0 mph N/A   Mostly Cloudy
4:00 PM 57 °F - 43 °F 49% 29.89 in 44 mi SW 11.2 mph - -   Partly Cloudy
4:20 PM 57.2 °F - 41.0 °F 55% 29.89 in - WSW 16.1 mph 28.8 mph N/A   Clear
4:50 PM 55.4 °F - 41.0 °F 58% 29.89 in - WSW 12.7 mph - N/A   Clear
5:20 PM 55.4 °F - 41.0 °F 58% 29.89 in 6.2 mi WSW 16.1 mph 27.6 mph N/A   Mostly Cloudy
5:50 PM 55.4 °F - 41.0 °F 58% 29.89 in 6.2 mi SW 12.7 mph - N/A   Mostly Cloudy
6:00 PM 54 °F - 42 °F 53% 29.91 in 44 mi SW 13.4 mph - -   Partly Cloudy
6:20 PM 53.6 °F - 41.0 °F 62% 29.89 in 6.2 mi SW 10.4 mph - N/A   Mostly Cloudy
6:50 PM 53.6 °F - 41.0 °F 62% 29.89 in 6.2 mi SW 9.2 mph - N/A   Mostly Cloudy
7:00 PM 53 °F - 41 °F 53% 29.91 in 44 mi SW 8.9 mph - -   Partly Cloudy
7:20 PM 53.6 °F - 39.2 °F 58% 29.92 in 6.2 mi SW 6.9 mph - N/A   Mostly Cloudy
7:50 PM 53.6 °F - 41.0 °F 62% 29.92 in 6.2 mi SSW 8.1 mph - N/A   Mostly Cloudy
8:00 PM 53 °F - 41 °F 54% 29.92 in 44 mi SSW 6.7 mph - -   Partly Cloudy
8:20 PM 51.8 °F - 39.2 °F 62% 29.92 in 6.2 mi SW 12.7 mph - N/A   Mostly Cloudy
8:50 PM 51.8 °F - 39.2 °F 62% 29.92 in 6.2 mi SSW 8.1 mph - N/A   Mostly Cloudy
9:00 PM 51 °F - 40 °F 57% 29.94 in 47 mi SSW 8.9 mph - -   Partly Cloudy
9:20 PM 50.0 °F - 39.2 °F 66% 29.92 in 6.2 mi SSW 9.2 mph - N/A   Mostly Cloudy
9:50 PM 50.0 °F - 39.2 °F 66% 29.92 in 6.2 mi SW 12.7 mph - N/A   Mostly Cloudy
10:00 PM 50 °F - 40 °F 59% 29.95 in 47 mi SW 13.4 mph - -   Partly Cloudy
10:20 PM 50.0 °F - 39.2 °F 66% 29.95 in 6.2 mi SW 8.1 mph - N/A   Mostly Cloudy
10:50 PM 50.0 °F - 39.2 °F 66% 29.95 in 6.2 mi SSW 5.8 mph - N/A   Mostly Cloudy
11:20 PM 50.0 °F - 41.0 °F 71% 29.95 in 6.2 mi South 2.3 mph - N/A   Mostly Cloudy
11:50 PM 50.0 °F - 41.0 °F 71% 29.95 in 6.2 mi SSE 2.3 mph - N/A Rain Light Rain